Regional Weather Roundup
Issued by NWS Charleston, SC

Current Version | Previous Version | Text Only | Print | Product List | Glossary Off
Versions: 1 2 3 4 5 6 7 8 9 10 11 12 13 14 15 16 17 18 19 20 21 22 23 24 25 26 27 28 29 30 31 32 33 34 35 36 37 38 39 40 41 42 43 44 45 46 47 48 49 50

000
ASUS42 KCHS 030611
RWRCHS

REGIONAL WEATHER ROUNDUP
NATIONAL WEATHER SERVICE CHARLESTON SC
100 AM EST TUE MAR 03 2015

NOTE: "FAIR" INDICATES FEW OR NO CLOUDS BELOW 12,000 FEET WITH NO
SIGNIFICANT WEATHER AND/OR OBSTRUCTIONS TO VISIBILITY.

NOT ALL STATIONS ARE QUALITY CONTROLLED BY THE NATIONAL
WEATHER SERVICE. USE DATA WITH CAUTION...ESPECIALLY
DEWPOINT OBSERVATIONS.

SCZ027-030-031-034>040-042>050-030700-
...SOUTHEAST SOUTH CAROLINA...

CITY           SKY/WX    TMP DP  RH WIND       PRES   REMARKS
N CHARLESTON   MOCLDY    56  51  84 E6        30.26F
6HR MIN TEMP:  55; 6HR MAX TEMP:  69;

WATERFRONT PRK   N/A     54 N/A N/A NE7         N/A
MOUNT PLEASANT CLOUDY    55  52  88 E3        30.26F
PINOPOLIS        N/A     59  52  77 VRB3      30.19F
MONCKS CORNER  CLOUDY    57  52  82 SE3       30.26S
SUMMERVILLE    CLOUDY    55  52  88 SE6       30.26F
BEAUFORT MCAS  CLOUDY    55  54  96 SE6       30.24F
6HR MIN TEMP:  54; 6HR MAX TEMP:  59;

BEAUFORT ARPT  CLOUDY    55  55 100 E3        30.24F FOG
HILTON HEAD IS CLOUDY    54  54 100 NE5       30.25F
WALTERBORO     FAIR      55  54  94 E6        30.24F
ALLENDALE      CLOUDY    61  59  94 SE7       30.21F

...SOUTHERN MIDLANDS AND PEE DEE...

CITY           SKY/WX    TMP DP  RH WIND       PRES   REMARKS
GEORGETOWN     NOT AVBL
KINGSTREE      NOT AVBL
ORANGEBURG     FAIR      57  51  80 CALM      30.24F
6HR MIN TEMP:  57; 6HR MAX TEMP:  67;

BARNWELL       CLOUDY    61  55  82 E7        30.22F
AIKEN          CLOUDY    59  54  82 E6        30.25F
MANNING        CLOUDY    57  43  58 SE6       30.25F
COLUMBIA       CLOUDY    59  51  75 E9        30.23F
6HR MIN TEMP:  59; 6HR MAX TEMP:  65;

SUMTER         CLOUDY    55  51  85 NE6       30.24F
6HR MIN TEMP:  55; 6HR MAX TEMP:  58;

FLORENCE       MOCLDY    51  48  89 SE10      30.29S
6HR MIN TEMP:  48; 6HR MAX TEMP:  56;

MYRTLE BEACH   CLOUDY    48  43  81 E16       30.32S
N MYRTLE BEACH FAIR      49  42  77 E14G23    30.30F
6HR MIN TEMP:  48; 6HR MAX TEMP:  53;


$$

GAZ063-065-086>088-099>101-113>116-118-119-134>141-150-030700-
...SOUTHEAST GEORGIA...

CITY           SKY/WX    TMP DP  RH WIND       PRES   REMARKS
SAVANNAH ARPT  FAIR      58  55  90 E8        30.22F
6HR MIN TEMP:  58; 6HR MAX TEMP:  66;

HUNTER AAF     FAIR      58  58 100 CALM      30.20F
6HR MIN TEMP:  58; 6HR MAX TEMP:  69;

FORT STEWART   FAIR      59  57  94 CALM      30.19F
6HR MIN TEMP:  57; 6HR MAX TEMP:  66;

STATESBORO     FAIR      57  57 100 CALM      30.20F
SYLVANIA       CLOUDY    58  58 100 CALM      30.21F
CLAXTON        MOCLDY    55  55 100 CALM      30.21F

...CSRA...CENTRAL AND FAR SOUTHEAST GEORGIA...

CITY           SKY/WX    TMP DP  RH WIND       PRES   REMARKS
THOMSON        CLOUDY    59  59  98 CALM      30.27R
AUGUSTA-BUSH   MOCLDY    57  56  96 CALM      30.20F
6HR MIN TEMP:  57; 6HR MAX TEMP:  67; 6HR PCP: TRACE;

AUGUSTA-DANIEL CLOUDY    63  54  72 E7        30.21F
SWAINSBORO     NOT AVBL
VIDALIA        FAIR      61  59  94 SW3       30.21F
EASTMAN        CLOUDY    60  60 100 CALM      30.24F
HAZLEHURST     FAIR      59  59 100 CALM      30.21F FOG
ALMA           FOG       54  53  97 CALM      30.22F VSB 1/4
6HR MIN TEMP:  54; 6HR MAX TEMP:  60;

WAYCROSS       MOCLDY    59  59 100 CALM      30.23S FOG
JESUP          CLOUDY    61  61 100 CALM      30.23F FOG
BAXLEY         FOG       55  55 100 CALM      30.22F VSB 1/4
BRUNSWICK      FAIR      55  54  94 CALM      30.24F
SAINT SIMONS   CLOUDY    57  55  93 CALM      30.23F
6HR MIN TEMP:  55; 6HR MAX TEMP:  58;


$$

SCZ027-028-034-036>038-045-046-048>050-GAZ119-141-030700-
...LAKE AND SUPPLEMENTAL COASTAL OBSERVATIONS...

STATION/POSITION TIME  TEMP    WIND        PRES    WAVE   SWELL
                       AIR SEA DIR/SP/G            HT/PER HT/PER/DIR
                 (UTC) (F)     (DEG/KT/KT) (MB)    (FT/S) (FT/S/D)
UPR LAKE MARION  NOT AVBL
WINYAH BAY       0445   51      60/ 10     1025.0
LAKE MURRAY      0500   57     100/  5/  8 1023.7F
ACE BASIN NERRS  NOT AVBL
FORT PULASKI     0500                      1024.5F
SAPELO ISLAND    0500   56     170/  4     1024.0S

$$

ANZ835-935-AMZ111-154-330-350-352-354-370-450-454-472-030700-
...C-MAN AND BUOY OBSERVATIONS...

STATION/POSITION TIME  TEMP    WIND        PRES    WAVE   SWELL
                       AIR SEA DIR/SP/G            HT/PER HT/PER/DIR
                 (UTC) (F)     (DEG/KT/KT) (MB)    (FT/S) (FT/S/D)
BUOY 41004       0550   65 67  100/ 14/ 16 1023.8F   4/ 9   3/ 9
BUOY 41008       0550   54 52  270/  2/  4 1023.9F   3/ 9   3/100/ 9
FOLLY BEACH CMAN 0600   50      30/  8/  9 1024.9F
CAPERS NEARSHORE NOT AVBL
FRIPP NEARSHORE  0500   51      50/  6/  8 1023.9F


STATION/POSITION TIME  TEMP    WIND        PRES    WAVE   SWELL
                       AIR SEA DIR/SP/G            HT/PER HT/PER/DIR
                 (UTC) (F)     (DEG/KT/KT) (MB)    (FT/S) (FT/S/D)
5E ST. MARYS GA  0521      53                N/A     2/ 8
FRYING PAN BUOY  0550   58 62   70/ 19/ 23 1025.7F   5/ 6   2/140/ 8
BUOY 41025       NOT AVBL
CAPE LOOKOUT NC  0500   46      50/ 22/ 24 1028.2S
BUOY 41002       0550   67 73   40/ 12/ 16 1024.3R   6/ 8   5/110/ 8
BUOY 41010       0520   73 75   30/  6/  8 1023.9F
ST AUGUSTINE FL  0600   60      CALM  /  1 1024.1F


$$


USA.gov is the U.S. government's official web portal to all federal, state and local government web resources and services.